Change the Weather History Date:

Monday, January 13, 2014

  Actual Average Record
Temperature  
Mean Temperature 46 °F -  
Max Temperature 50 °F 36 °F 66 °F (2013)
Min Temperature 42 °F 22 °F -2 °F (1997)
Degree Days  
Heating Degree Days 19    
Moisture  
Dew Point 39 °F    
Average Humidity 77    
Maximum Humidity 93    
Minimum Humidity 53    
Precipitation  
Precipitation 0.00 in - - ()
Sea Level Pressure  
Sea Level Pressure 29.79 in    
Wind  
Wind Speed 14 mph (SSW)    
Max Wind Speed 21 mph    
Max Gust Speed 30 mph    
Visibility 10 miles    
Events      
Averages and records for this station are not official NWS values.
T = Trace of Precipitation, MM = Missing Value Source: NWS Daily Summary

Daily Weather History Graph

Daily Weather History Graph

Search for Another Location

Airport or City:

Trip Planner

Search our weather history database for the weather conditions in past years. The results will help you decide how hot, cold, wet, or windy it might be!

Date:

Astronomy

Jan. 13, 2014 Rise Set
Actual Time 8:03 AM EST 5:49 PM EST
Civil Twilight 7:34 AM EST 6:18 PM EST
Nautical Twilight 7:02 AM EST 6:51 PM EST
Astronomical Twilight 6:30 AM EST 7:22 PM EST
Moon 4:04 PM EST (1/13) 5:52 AM EST (1/13)
Length of Visible Light 10h 43m
Length of Day
9h 45m
Waxing Gibbous, 95% of the Moon is Illuminated
Jan 13
Waxing Gibbous
Jan 15
Full
Jan 24
Last Quarter
Jan 30
New
Feb 6
First Quarter

Hourly Weather History & Observations

Time (EST) Temp. Windchill Dew Point Humidity Pressure Visibility Wind Dir Wind Speed Gust Speed Precip Events Conditions
12:15 AM 46.4 °F 40.1 °F 30.2 °F 53% 29.88 in 10.0 mi SSW 15.0 mph - N/A   Clear
12:35 AM 46.4 °F 40.1 °F 30.2 °F 53% 29.89 in 10.0 mi SSW 15.0 mph 19.6 mph N/A   Clear
12:55 AM 44.6 °F 38.1 °F 30.2 °F 57% 29.88 in 10.0 mi South 13.8 mph - N/A   Clear
1:15 AM 44.6 °F 38.4 °F 30.2 °F 57% 29.87 in 10.0 mi South 12.7 mph - N/A   Clear
1:35 AM 44.6 °F 39.2 °F 30.2 °F 57% 29.87 in 10.0 mi South 10.4 mph - N/A   Clear
1:55 AM 44.6 °F 38.8 °F 30.2 °F 57% 29.86 in 10.0 mi South 11.5 mph - N/A   Clear
2:15 AM 44.6 °F 38.4 °F 32.0 °F 61% 29.85 in 10.0 mi South 12.7 mph - N/A   Clear
2:35 AM 46.4 °F 39.8 °F 32.0 °F 57% 29.85 in 10.0 mi South 16.1 mph 20.7 mph N/A   Clear
2:55 AM 46.4 °F 39.8 °F 32.0 °F 57% 29.85 in 10.0 mi South 16.1 mph - N/A   Clear
3:15 AM 48.2 °F - 32.0 °F 54% 29.85 in 10.0 mi South 16.1 mph 20.7 mph N/A   Clear
3:35 AM 48.2 °F - 32.0 °F 54% 29.84 in 10.0 mi South 17.3 mph - N/A   Clear
3:55 AM 48.2 °F - 33.8 °F 58% 29.83 in 10.0 mi South 18.4 mph 24.2 mph N/A   Scattered Clouds
4:15 AM 48.2 °F - 33.8 °F 58% 29.83 in 10.0 mi South 17.3 mph 25.3 mph N/A   Scattered Clouds
4:35 AM 48.2 °F - 33.8 °F 58% 29.82 in 10.0 mi South 19.6 mph 25.3 mph N/A   Mostly Cloudy
4:55 AM 48.2 °F - 33.8 °F 58% 29.82 in 10.0 mi South 17.3 mph 23.0 mph N/A   Mostly Cloudy
5:15 AM 48.2 °F - 33.8 °F 58% 29.82 in 10.0 mi South 15.0 mph 23.0 mph N/A   Mostly Cloudy
5:35 AM 48.2 °F - 35.6 °F 62% 29.80 in 10.0 mi South 12.7 mph 23.0 mph N/A   Mostly Cloudy
5:55 AM 48.2 °F - 35.6 °F 62% 29.81 in 10.0 mi South 11.5 mph - N/A   Mostly Cloudy
6:15 AM 48.2 °F - 35.6 °F 62% 29.80 in 10.0 mi South 13.8 mph - N/A   Scattered Clouds
6:35 AM 48.2 °F - 35.6 °F 62% 29.79 in 10.0 mi South 12.7 mph - N/A   Partly Cloudy
6:55 AM 48.2 °F - 37.4 °F 66% 29.78 in 10.0 mi South 20.7 mph 27.6 mph N/A   Clear
7:15 AM 48.2 °F - 39.2 °F 71% 29.78 in 10.0 mi SSW 20.7 mph 29.9 mph N/A   Clear
7:35 AM 48.2 °F - 39.2 °F 71% 29.79 in 10.0 mi South 20.7 mph 26.5 mph N/A   Clear
7:55 AM 46.4 °F 38.7 °F 41.0 °F 81% 29.79 in 10.0 mi South 20.7 mph 26.5 mph N/A   Clear
8:15 AM 48.2 °F - 41.0 °F 76% 29.79 in 10.0 mi South 19.6 mph 23.0 mph N/A   Clear
8:35 AM 46.4 °F 39.2 °F 41.0 °F 81% 29.79 in 10.0 mi South 18.4 mph 24.2 mph N/A   Clear
8:55 AM 48.2 °F - 41.0 °F 76% 29.78 in 10.0 mi South 16.1 mph - N/A   Clear
9:15 AM 48.2 °F - 41.0 °F 76% 29.79 in 10.0 mi South 19.6 mph 25.3 mph N/A   Clear
9:35 AM 48.2 °F - 41.0 °F 76% 29.79 in 10.0 mi SSW 16.1 mph 25.3 mph N/A   Clear
9:55 AM 48.2 °F - 41.0 °F 76% 29.80 in 10.0 mi SSW 18.4 mph - N/A   Scattered Clouds
10:15 AM 48.2 °F - 42.8 °F 82% 29.80 in 10.0 mi SSW 18.4 mph 25.3 mph N/A   Mostly Cloudy
10:35 AM 48.2 °F - 42.8 °F 82% 29.79 in 10.0 mi SSW 18.4 mph 23.0 mph N/A   Mostly Cloudy
10:55 AM 48.2 °F - 42.8 °F 82% 29.80 in 10.0 mi South 19.6 mph 24.2 mph N/A   Mostly Cloudy
11:15 AM 48.2 °F - 42.8 °F 82% 29.79 in 10.0 mi SSW 17.3 mph 24.2 mph N/A   Mostly Cloudy
11:35 AM 50.0 °F - 42.8 °F 76% 29.79 in 10.0 mi SSW 16.1 mph 23.0 mph N/A   Overcast
11:55 AM 50.0 °F - 42.8 °F 76% 29.77 in 10.0 mi South 13.8 mph - N/A   Overcast
12:15 PM 48.2 °F - 42.8 °F 82% 29.77 in 10.0 mi SSW 16.1 mph 21.9 mph N/A   Overcast
12:35 PM 48.2 °F - 42.8 °F 82% 29.76 in 10.0 mi South 16.1 mph 20.7 mph N/A   Overcast
12:55 PM 48.2 °F - 44.6 °F 87% 29.74 in 10.0 mi SSW 11.5 mph 21.9 mph N/A   Overcast
1:15 PM 48.2 °F - 44.6 °F 87% 29.74 in 10.0 mi South 11.5 mph - N/A   Overcast
1:35 PM 48.2 °F - 44.6 °F 87% 29.73 in 10.0 mi SSW 12.7 mph 20.7 mph N/A   Overcast
1:55 PM 48.2 °F - 44.6 °F 87% 29.73 in 10.0 mi SSW 13.8 mph - N/A   Overcast
2:15 PM 48.2 °F - 44.6 °F 87% 29.72 in 5.0 mi SSW 12.7 mph 19.6 mph N/A   Overcast
2:35 PM 48.2 °F - 44.6 °F 87% 29.72 in 5.0 mi SSW 10.4 mph - N/A   Overcast
2:55 PM 48.2 °F - 44.6 °F 87% 29.73 in 8.0 mi SSW 11.5 mph - N/A   Overcast
3:15 PM 48.2 °F - 44.6 °F 87% 29.72 in 10.0 mi South 13.8 mph - N/A   Overcast
3:35 PM 48.2 °F - 46.4 °F 93% 29.72 in 10.0 mi SSW 13.8 mph - N/A   Overcast
3:55 PM 48.2 °F - 46.4 °F 93% 29.73 in 10.0 mi SSW 13.8 mph - N/A   Overcast
4:15 PM 48.2 °F - 46.4 °F 93% 29.73 in 10.0 mi SSW 16.1 mph 20.7 mph N/A   Overcast
4:35 PM 48.2 °F - 46.4 °F 93% 29.74 in 10.0 mi SW 12.7 mph - N/A   Overcast
4:55 PM 48.2 °F - 46.4 °F 93% 29.74 in 10.0 mi West 9.2 mph - N/A   Overcast
5:15 PM 48.2 °F - 46.4 °F 93% 29.74 in 10.0 mi SSW 9.2 mph - N/A   Overcast
5:35 PM 48.2 °F - 46.4 °F 93% 29.74 in 10.0 mi SSW 9.2 mph - N/A   Overcast
5:55 PM 48.2 °F - 46.4 °F 93% 29.75 in 10.0 mi SSW 6.9 mph - N/A   Mostly Cloudy
6:15 PM 46.4 °F 42.9 °F 44.6 °F 93% 29.75 in 10.0 mi SSW 6.9 mph - N/A   Scattered Clouds
6:35 PM 44.6 °F 41.4 °F 42.8 °F 93% 29.76 in 6.0 mi SW 5.8 mph - N/A   Partly Cloudy
6:55 PM 46.4 °F 43.5 °F 44.6 °F 93% 29.77 in 5.0 mi SW 5.8 mph - N/A   Mostly Cloudy
7:15 PM 44.6 °F 41.4 °F 42.8 °F 93% 29.78 in 2.0 mi West 5.8 mph - N/A   Mostly Cloudy
7:35 PM 44.6 °F 40.7 °F 42.8 °F 93% 29.79 in 2.0 mi West 6.9 mph - N/A   Scattered Clouds
7:55 PM 44.6 °F 42.2 °F 42.8 °F 93% 29.79 in 10.0 mi WSW 4.6 mph - N/A   Partly Cloudy
8:15 PM 44.6 °F 41.4 °F 42.8 °F 93% 29.80 in 10.0 mi West 5.8 mph - N/A   Clear
8:35 PM 42.8 °F 39.3 °F 41.0 °F 93% 29.80 in 10.0 mi WNW 5.8 mph - N/A   Clear
8:55 PM 42.8 °F 37.5 °F 39.2 °F 87% 29.80 in 10.0 mi WNW 9.2 mph - N/A   Clear
9:15 PM 42.8 °F 38.6 °F 39.2 °F 87% 29.80 in 10.0 mi WNW 6.9 mph - N/A   Clear
9:35 PM 42.8 °F 38.6 °F 39.2 °F 87% 29.81 in 10.0 mi West 6.9 mph - N/A   Clear
9:55 PM 42.8 °F 38.6 °F 37.4 °F 81% 29.81 in 10.0 mi WNW 6.9 mph - N/A   Partly Cloudy
10:15 PM 42.8 °F 39.3 °F 37.4 °F 81% 29.82 in 10.0 mi West 5.8 mph - N/A   Clear
10:35 PM 42.8 °F 38.6 °F 37.4 °F 81% 29.83 in 10.0 mi West 6.9 mph - N/A   Clear
10:55 PM 42.8 °F 38.0 °F 35.6 °F 76% 29.84 in 10.0 mi WNW 8.1 mph 16.1 mph N/A   Clear
11:15 PM 42.8 °F 37.5 °F 35.6 °F 76% 29.84 in 10.0 mi NW 9.2 mph - N/A   Clear
11:35 PM 42.8 °F 37.5 °F 35.6 °F 76% 29.84 in 10.0 mi NW 9.2 mph - N/A   Clear
11:55 PM 42.8 °F 37.5 °F 35.6 °F 76% 29.84 in 10.0 mi NNW 9.2 mph - N/A   Clear